Regional Weather Roundup
Issued by NWS

Home | Current Version | Previous Version | Text Only | Print | Product List | Glossary Off
Versions: 1 2 3 4 5 6 7 8 9 10 11 12 13 14 15 16 17 18 19 20 21 22 23 24 25 26 27 28 29 30 31 32 33 34 35 36 37 38 39 40 41 42 43 44 45 46 47 48 49 50

000
ASUS43 KTOP 231408
RWRKS

WEATHER ROUNDUP FOR KANSAS
NATIONAL WEATHER SERVICE GOODLAND KS
900 AM CDT WED JUL 23 2014

NOTE:  "FAIR" INDICATES FEW OR NO CLOUDS BELOW 12,000 FEET WITH NO
SIGNIFICANT WEATHER AND/OR OBSTRUCTIONS TO VISIBILITY.

KSZ001>006-013>018-027>032-041>047-231500-
NORTHWEST KANSAS

CITY           SKY/WX    TMP DP  RH WIND       PRES   REMARKS
GOODLAND       CLOUDY    69  67  93 SE15      30.31R
HAYS           MOSUNNY   73  63  68 E10       30.21R
HILL CITY      CLOUDY    73  66  78 NE13      30.25R
RUSSELL        CLOUDY    73  66  78 NE12      30.21R
$$

KSZ061>065-074>080-084>089-231500-
SOUTHWEST KANSAS

CITY           SKY/WX    TMP DP  RH WIND       PRES   REMARKS
DODGE CITY     SUNNY     78  64  61 NE8       30.23F
ELKHART          N/A     76  64  66 S6          N/A
GARDEN CITY    SUNNY     78  65  63 E7        30.24F
GREAT BEND     CLOUDY    75  66  73 E14       30.16F
LIBERAL        SUNNY     79  68  69 CALM      30.26R
PRATT          CLOUDY    73  72  94 NE12      30.21S FOG
$$

KSZ066>073-081>083-090>101-231500-
SOUTHEAST KANSAS

CITY           SKY/WX    TMP DP  RH WIND       PRES   REMARKS
CHANUTE        SUNNY     82  73  74 NE14      30.12S
COFFEYVILLE    SUNNY     83  76  79 N6        30.10S
HUTCHINSON     CLOUDY    77  70  79 N14G25    30.20R
MEDICINE LODGE   N/A     80  73  79 N5        30.16S
NEWTON         CLOUDY    77  68  73 N16G22    30.23R
PARSONS        CLOUDY    82  76  81 NE7       30.12R
WICHITA INTL   PTSUNNY   81  75  82 NE9       30.15R
WICHITA JABRA  PTSUNNY   80  75  84 NE10      30.16R
WICHITA MCCONL MOSUNNY   80  80 100 N12       30.16R
WINFIELD       SUNNY     83  77  82 CALM      30.13F
$$

KSZ007>012-019>026-033>040-048>060-102>105-231500-
NORTHEAST KANSAS

CITY           SKY/WX    TMP DP  RH WIND       PRES   REMARKS
CONCORDIA      CLOUDY    67  66  97 E9        30.20S
EMPORIA        CLOUDY    78  70  76 NE9       30.16R
LAWRENCE       SUNNY     76  68  76 E7        30.14F
MANHATTAN      LGT RAIN  75  63  66 NW7       30.24R
MARYSVILLE     PTSUNNY   72  63  73 NW8       30.25S
OLATHE IND     SUNNY     79  66  64 NE12      30.15S
OLATHE EXE     SUNNY     78  66  66 NE10      30.14S
SALINA         CLOUDY    73  63  70 E10       30.19F
TOPEKA BILLARD SUNNY     79  67  66 NE10      30.15F
TOPEKA FORBES  SUNNY     78  66  66 NE9       30.15F
$$


USA.gov is the U.S. government's official web portal to all federal, state and local government web resources and services.